When you browse on this site, cookies collect data to enhance your experience and personalize the content and advertising you see.
Visit our Privacy Policy to learn more. By continuing to use the site, you agree to this use of cookies and data.
  • In Spain
  • List of Countries
  • For 7 days
  • Water Temperature
  • Weather Map
  • Weather Widgets
  • user-avatar
    Login

    Hourly Weather Vanadzor

    Today, 6 April, Monday

    Time Temperature Precipitation Wind Pressure Humidity
    00:00 +6°C° 0 mm 2 mps 635 mmHg 78%
    01:00 +6°C° 0.3 mm 2 mps 635 mmHg 83%
    02:00 +6°C° 0.3 mm 2 mps 634 mmHg 87%
    03:00 +6°C° 0 mm 2 mps 634 mmHg 92%
    04:00 +6°C° 0 mm 2 mps 634 mmHg 90%
    05:00 +6°C° 0 mm 2 mps 634 mmHg 89%
    06:00 +6°C° 0 mm 2 mps 634 mmHg 87%
    07:00 +7°C° 0.1 mm 2 mps 634 mmHg 83%
    08:00 +8°C° 0.1 mm 2 mps 634 mmHg 79%
    09:00 +9°C° 0.1 mm 2 mps 635 mmHg 74%
    10:00 +10°C° 0 mm 2 mps 635 mmHg 73%
    11:00 +10°C° 0 mm 3 mps 635 mmHg 71%
    12:00 +11°C° 0 mm 3 mps 635 mmHg 69%
    13:00 +10°C° 0.4 mm 2 mps 635 mmHg 72%
    14:00 +10°C° 0.4 mm 2 mps 635 mmHg 75%
    15:00 +10°C° 0.4 mm 2 mps 635 mmHg 78%
    16:00 +10°C° 0.3 mm 1 mps 635 mmHg 81%
    17:00 +9°C° 0.3 mm 1 mps 635 mmHg 85%
    18:00 +9°C° 0.3 mm 1 mps 635 mmHg 89%
    19:00 +8°C° 0.5 mm 1 mps 635 mmHg 90%
    20:00 +8°C° 0.5 mm 1 mps 635 mmHg 92%
    21:00 +7°C° 0.5 mm 1 mps 635 mmHg 94%
    22:00 +7°C° 0.9 mm 1 mps 635 mmHg 95%
    23:00 +6°C° 0.9 mm 1 mps 635 mmHg 95%

    Tomorrow, 7 April, Tuesday

    Time Temperature Precipitation Wind Pressure Humidity
    00:00 +5°C° 0.9 mm 1 mps 635 mmHg 96%
    01:00 +4°C° 0.3 mm 2 mps 635 mmHg 96%
    02:00 +4°C° 0.3 mm 2 mps 635 mmHg 96%
    03:00 +4°C° 0.3 mm 2 mps 635 mmHg 97%
    04:00 +3°C° 0.3 mm 2 mps 635 mmHg 97%
    05:00 +3°C° 0.3 mm 2 mps 635 mmHg 96%
    06:00 +2°C° 0.3 mm 2 mps 635 mmHg 96%
    07:00 +1°C° 0.3 mm 3 mps 635 mmHg 95%
    08:00 +1°C° 0.3 mm 3 mps 635 mmHg 95%
    09:00 +1°C° 0.3 mm 3 mps 635 mmHg 94%
    10:00 +1°C° 0.3 mm 3 mps 635 mmHg 92%
    11:00 +1°C° 0.3 mm 3 mps 635 mmHg 90%
    12:00 +2°C° 0.3 mm 3 mps 635 mmHg 88%
    13:00 +1°C° 0.1 mm 3 mps 635 mmHg 88%
    14:00 +1°C° 0.1 mm 3 mps 635 mmHg 87%
    15:00 +1°C° 0.1 mm 3 mps 635 mmHg 86%
    16:00 0°C° 0.1 mm 3 mps 635 mmHg 88%
    17:00 0°C° 0.1 mm 3 mps 635 mmHg 89%
    18:00 -1°C° 0.1 mm 2 mps 635 mmHg 90%
    19:00 -2°C° 0.1 mm 2 mps 636 mmHg 91%
    20:00 -2°C° 0.1 mm 2 mps 636 mmHg 91%
    21:00 -3°C° 0.1 mm 2 mps 636 mmHg 92%
    22:00 -3°C° 0.1 mm 2 mps 637 mmHg 91%
    23:00 -3°C° 0.1 mm 2 mps 637 mmHg 91%

    Day after tomorrow, 8 April, Wednesday

    Time Temperature Precipitation Wind Pressure Humidity
    00:00 -3°C° 0.1 mm 2 mps 637 mmHg 90%
    01:00 -3°C° 0.1 mm 2 mps 637 mmHg 90%
    02:00 -4°C° 0.1 mm 2 mps 637 mmHg 89%
    03:00 -4°C° 0.1 mm 2 mps 637 mmHg 89%
    04:00 -4°C° 0.1 mm 2 mps 638 mmHg 89%
    05:00 -4°C° 0.1 mm 2 mps 638 mmHg 89%
    06:00 -4°C° 0.1 mm 2 mps 638 mmHg 89%
    07:00 -3°C° 0.1 mm 2 mps 638 mmHg 86%
    08:00 -3°C° 0.1 mm 2 mps 638 mmHg 82%
    09:00 -2°C° 0.1 mm 2 mps 638 mmHg 79%
    10:00 -1°C° 0 mm 2 mps 638 mmHg 77%
    11:00 -1°C° 0 mm 3 mps 638 mmHg 76%
    12:00 0°C° 0 mm 3 mps 638 mmHg 75%
    13:00 0°C° 0 mm 3 mps 638 mmHg 76%
    14:00 +1°C° 0 mm 3 mps 637 mmHg 77%
    15:00 +2°C° 0 mm 2 mps 637 mmHg 78%
    16:00 +1°C° 0 mm 2 mps 636 mmHg 82%
    17:00 -1°C° 0 mm 2 mps 636 mmHg 85%
    18:00 -1°C° 0 mm 2 mps 636 mmHg 88%
    19:00 -2°C° 0 mm 2 mps 636 mmHg 90%
    20:00 0°C° 0 mm 1 mps 636 mmHg 91%
    21:00 -1°C° 0 mm 1 mps 636 mmHg 92%
    22:00 -1°C° 0 mm 1 mps 636 mmHg 91%
    23:00 -1°C° 0 mm 1 mps 636 mmHg 91%

    9 April, Thursday

    Time Temperature Precipitation Wind Pressure Humidity
    00:00 -1°C° 0 mm 1 mps 635 mmHg 90%
    01:00 -2°C° 0 mm 0 mps 635 mmHg 89%
    02:00 -2°C° 0 mm 0 mps 635 mmHg 88%
    03:00 -2°C° 0 mm 0 mps 634 mmHg 87%
    04:00 -2°C° 0 mm 0 mps 634 mmHg 86%
    05:00 0°C° 0 mm 1 mps 634 mmHg 84%
    06:00 0°C° 0 mm 1 mps 634 mmHg 82%
    07:00 +2°C° 0 mm 1 mps 634 mmHg 77%
    08:00 +4°C° 0 mm 1 mps 634 mmHg 71%
    09:00 +6°C° 0 mm 1 mps 634 mmHg 65%
    10:00 +8°C° 0 mm 1 mps 634 mmHg 64%
    11:00 +8°C° 0 mm 2 mps 634 mmHg 64%
    12:00 +9°C° 0 mm 2 mps 634 mmHg 63%
    13:00 +9°C° 0 mm 2 mps 633 mmHg 67%
    14:00 +9°C° 0 mm 2 mps 633 mmHg 72%
    15:00 +8°C° 0 mm 2 mps 632 mmHg 76%
    16:00 +7°C° 0.1 mm 2 mps 632 mmHg 81%
    17:00 +6°C° 0.1 mm 2 mps 632 mmHg 86%
    18:00 +6°C° 0.1 mm 1 mps 631 mmHg 91%
    19:00 +4°C° 0 mm 2 mps 631 mmHg 93%
    20:00 +3°C° 0 mm 2 mps 631 mmHg 94%
    21:00 +3°C° 0 mm 2 mps 632 mmHg 96%
    22:00 +2°C° 0 mm 2 mps 632 mmHg 95%
    23:00 +2°C° 0 mm 2 mps 632 mmHg 94%

    10 April, Friday

    Time Temperature Precipitation Wind Pressure Humidity
    00:00 +2°C° 0 mm 1 mps 631 mmHg 94%
    01:00 +2°C° 0 mm 1 mps 631 mmHg 93%
    02:00 +2°C° 0 mm 1 mps 631 mmHg 93%
    03:00 +2°C° 0 mm 1 mps 630 mmHg 92%
    04:00 +2°C° 0 mm 1 mps 630 mmHg 92%
    05:00 +2°C° 0 mm 1 mps 630 mmHg 91%
    06:00 +2°C° 0 mm 1 mps 630 mmHg 91%
    07:00 +3°C° 0 mm 1 mps 630 mmHg 86%
    08:00 +4°C° 0 mm 1 mps 631 mmHg 81%
    09:00 +6°C° 0 mm 1 mps 631 mmHg 76%
    10:00 +6°C° 0 mm 2 mps 631 mmHg 75%
    11:00 +7°C° 0 mm 2 mps 631 mmHg 74%
    12:00 +8°C° 0 mm 2 mps 631 mmHg 73%
    13:00 +7°C° 0.1 mm 2 mps 630 mmHg 76%
    14:00 +7°C° 0.1 mm 2 mps 630 mmHg 79%
    15:00 +6°C° 0.1 mm 2 mps 629 mmHg 83%
    16:00 +5°C° 0.1 mm 2 mps 629 mmHg 86%
    17:00 +5°C° 0.1 mm 2 mps 629 mmHg 89%
    18:00 +4°C° 0.1 mm 2 mps 629 mmHg 92%
    19:00 +4°C° 0.5 mm 1 mps 629 mmHg 93%
    20:00 +4°C° 0.5 mm 1 mps 629 mmHg 93%
    21:00 +4°C° 0.5 mm 1 mps 630 mmHg 94%
    22:00 +4°C° 0.6 mm 1 mps 629 mmHg 95%
    23:00 +3°C° 0.6 mm 1 mps 629 mmHg 96%

    11 April, Saturday

    Time Temperature Precipitation Wind Pressure Humidity
    00:00 +3°C° 0.6 mm 1 mps 629 mmHg 97%
    01:00 +3°C° 0.5 mm 1 mps 629 mmHg 97%
    02:00 +3°C° 0.5 mm 1 mps 629 mmHg 97%
    03:00 +3°C° 0.5 mm 1 mps 629 mmHg 97%
    04:00 +3°C° 0.8 mm 1 mps 629 mmHg 97%
    05:00 +3°C° 0.8 mm 1 mps 629 mmHg 97%
    06:00 +2°C° 0.8 mm 0 mps 629 mmHg 97%
    07:00 +2°C° 0.6 mm 0 mps 629 mmHg 97%
    08:00 +3°C° 0.6 mm 0 mps 629 mmHg 98%
    09:00 +3°C° 0.6 mm 0 mps 629 mmHg 98%
    10:00 +5°C° 0.8 mm 1 mps 629 mmHg 98%
    11:00 +5°C° 0.8 mm 1 mps 629 mmHg 98%
    12:00 +5°C° 0.8 mm 1 mps 629 mmHg 98%
    13:00 +5°C° 0.4 mm 1 mps 629 mmHg 98%
    14:00 +5°C° 0.4 mm 1 mps 629 mmHg 98%
    15:00 +4°C° 0.4 mm 2 mps 629 mmHg 98%
    16:00 +4°C° 0.2 mm 1 mps 629 mmHg 98%
    17:00 +4°C° 0.2 mm 1 mps 629 mmHg 97%
    18:00 +4°C° 0.2 mm 1 mps 629 mmHg 97%
    19:00 +3°C° 0 mm 1 mps 630 mmHg 96%
    20:00 +3°C° 0 mm 1 mps 630 mmHg 95%
    21:00 +2°C° 0 mm 1 mps 630 mmHg 95%
    22:00 +2°C° 0 mm 1 mps 630 mmHg 94%
    23:00 +1°C° 0 mm 0 mps 630 mmHg 94%
    Show more